Wind_Speed
6 7 8 9 9 8 5 0 6 10 12 14 14 14 14 14 13 13 12 12 12 13 14 15 17 17 17 17 16 16 15 14 13 12 11 9 9 8 7 7 7 7 6
6 5 5 6 7 8 7 5 1 3 7 10 11 12 12 13 13 13 12 11 11 11 12 12 13 14 14 14 14 14 14 14 13 13 12 11 10 9 9 8 8 8 8
6 6 5 4 4 4 5 5 3 1 2 5 7 9 11 11 12 12 12 11 12 12 11 11 12 12 12 12 12 12 12 12 13 13 13 12 12 12 11 10 10 10 10
8 7 6 5 5 4 3 2 2 1 1 3 5 7 8 10 11 11 12 12 12 13 13 13 13 12 12 12 12 12 11 11 13 14 13 13 13 13 13 13 13 13 13
9 8 8 7 6 5 5 4 4 4 4 4 5 6 7 8 10 11 11 12 13 14 14 15 15 14 14 13 13 13 12 12 14 15 14 14 15 15 16 16 16 16 16
8 8 8 7 7 6 6 6 7 7 7 7 7 7 7 8 9 10 11 11 13 14 15 15 15 15 15 15 15 14 14 13 14 16 15 15 16 16 16 17 17 17 17
9 8 8 7 7 7 6 7 8 9 10 10 11 10 10 10 10 10 11 11 12 13 14 15 16 16 16 16 16 16 15 15 15 16 16 16 16 16 16 17 17 17 17
12 11 10 9 9 8 8 8 8 9 10 12 13 14 14 14 13 14 13 13 13 14 15 15 16 17 17 17 17 17 16 16 16 16 16 16 17 17 17 17 17 17 17
13 13 13 12 12 11 11 10 10 10 10 12 13 15 16 17 17 17 17 17 16 17 17 17 17 17 18 18 18 18 17 17 17 18 18 18 19 19 19 19 19 19 19
14 15 15 15 15 15 14 14 13 13 13 13 14 15 16 17 19 20 20 20 20 20 20 20 20 20 20 20 20 20 20 19 20 20 19 20 20 20 20 20 20 20 20
15 16 17 18 18 18 18 18 17 17 17 17 16 16 17 17 18 20 21 23 23 24 23 23 23 23 23 23 23 23 23 23 22 22 22 21 21 21 21 20 20 20 20
16 16 17 18 19 19 20 20 20 20 20 21 21 20 20 20 20 20 22 23 24 25 25 26 26 26 26 27 27 26 26 26 26 25 25 24 24 24 23 22 22 22 21
18 18 18 18 18 19 20 21 22 22 23 23 24 24 24 24 24 24 24 24 25 25 26 26 27 27 28 28 29 29 29 29 29 29 28 28 27 27 26 26 25 25 25
22 21 20 20 19 20 20 21 22 23 24 24 26 27 27 28 28 29 29 28 28 28 28 28 28 28 29 29 29 30 30 31 31 32 31 31 31 30 30 29 29 28 28
24 24 23 23 23 22 22 23 24 25 26 26 26 27 29 30 30 31 32 32 32 32 33 33 32 31 31 31 31 31 31 32 32 32 33 33 33 33 33 32 32 31 31
25 26 26 26 26 26 26 26 27 28 29 30 30 31 31 31 32 32 34 34 35 35 36 36 36 35 35 34 34 34 33 33 33 33 33 34 34 35 35 34 34 34 33
27 27 28 28 28 29 29 30 30 31 32 33 34 34 35 35 35 35 35 36 37 37 38 39 39 39 38 38 38 37 36 36 35 35 35 35 36 36 36 36 35 35 35
29 29 29 30 30 30 31 32 33 33 34 35 36 37 37 38 38 39 39 39 40 40 40 41 42 41 41 41 41 40 39 39 38 37 37 37 38 38 38 37 37 37 36
32 32 31 31 32 32 33 33 34 35 36 37 38 39 40 40 41 41 41 42 43 44 43 44 44 45 44 43 43 42 41 41 41 40 40 40 40 40 39 39 39 38 38
34 34 34 34 34 34 35 35 36 37 37 38 39 41 42 42 43 43 43 44 45 46 46 47 48 49 48 47 46 44 43 42 42 42 42 42 42 42 42 41 40 39 39
36 36 37 37 37 37 38 38 39 39 40 40 41 42 43 44 45 45 45 46 46 47 47 48 50 51 51 51 50 48 46 45 44 43 42 43 44 44 43 42 42 41 41
38 38 39 39 40 40 41 42 42 42 43 43 44 45 45 46 47 47 48 48 48 48 48 49 50 51 52 53 53 52 51 49 46 45 45 45 45 45 44 44 43 43 43
39 40 41 42 43 43 44 45 46 46 47 47 48 48 49 50 50 51 51 51 51 51 51 51 52 53 53 54 54 54 54 52 50 50 48 47 47 47 46 46 45 46 45
40 41 41 43 44 45 46 47 48 49 50 51 52 53 53 54 54 55 55 56 56 56 56 55 55 56 56 56 56 56 57 56 55 54 52 52 51 50 50 50 50 49 48
42 41 42 43 45 46 48 49 51 52 53 54 55 56 57 58 59 60 60 61 61 61 61 61 60 60 60 60 60 59 60 60 59 58 56 55 55 55 55 54 54 52 50
46 44 44 44 46 48 50 53 55 56 57 58 59 60 61 62 63 64 65 65 66 66 67 66 66 65 65 65 64 64 64 64 63 62 61 60 59 59 59 59 57 55 54
Wind_Direction
18 28 35 41 45 46 45 254 231 233 234 236 239 243 246 247 248 245 242 242 244 244 244 246 246 247 249 252 254 253 253 254 257 258 259 260 262 262 260 257 255 252 251
8 7 15 29 39 44 46 47 30 245 240 241 242 242 244 248 250 249 248 248 249 249 248 247 246 248 250 252 253 253 253 254 255 256 257 258 260 260 259 259 258 256 253
9 357 353 359 12 27 38 44 45 23 257 251 248 246 246 247 248 249 251 252 251 250 250 249 248 250 251 253 255 256 257 257 258 259 259 260 261 262 262 261 260 260 257
13 4 355 346 339 338 343 354 3 353 291 262 256 255 254 252 251 251 251 251 251 251 250 250 251 253 254 255 257 258 259 260 261 261 261 262 263 264 264 263 262 260 258
8 6 2 354 341 324 308 297 288 281 276 270 262 258 258 257 255 254 253 252 251 251 251 251 252 254 256 257 258 258 258 258 260 261 261 261 262 263 264 264 262 260 258
348 353 354 352 346 332 310 293 282 275 270 268 266 263 260 258 256 255 254 253 252 250 250 250 250 251 253 254 256 256 256 255 256 258 259 259 260 261 261 261 261 259 257
323 327 330 331 330 326 318 302 286 278 273 269 266 264 262 260 258 257 255 253 252 251 250 249 249 249 251 252 253 254 254 254 253 254 255 256 258 258 258 258 258 258 256
307 306 306 307 306 306 305 302 295 285 276 272 269 266 264 262 261 260 259 257 255 254 253 252 250 249 250 251 252 252 252 253 253 253 254 255 256 256 257 256 254 253 252
296 293 292 290 289 289 289 289 288 285 281 274 270 267 264 263 262 261 260 260 259 258 256 256 255 254 253 253 252 253 253 254 255 256 257 258 258 257 257 256 255 253 251
294 289 286 284 281 279 278 277 277 277 276 275 272 268 265 262 261 260 260 259 259 258 258 257 258 257 257 256 255 255 255 256 256 257 259 260 261 261 259 259 258 256 254
296 292 288 284 280 278 275 272 271 270 270 270 269 268 266 264 261 260 258 258 258 258 258 258 258 258 258 258 257 257 258 258 258 259 259 260 262 262 262 261 260 259 257
295 293 290 287 284 280 276 272 269 268 267 266 265 265 265 263 262 260 258 257 257 257 258 258 258 258 259 259 259 259 259 258 259 259 259 260 261 263 263 262 262 260 258
294 290 288 286 285 282 278 274 270 268 266 264 262 262 262 261 261 260 259 257 257 257 257 257 257 258 258 259 259 259 259 258 258 258 258 259 261 262 263 263 262 261 259
293 289 284 280 277 276 276 274 271 269 267 265 263 262 261 261 260 259 258 257 256 256 256 255 255 256 256 257 258 258 258 258 258 257 257 258 259 260 260 261 260 259 259
290 285 281 276 271 267 266 268 269 268 266 265 265 264 263 262 261 260 260 259 258 257 256 256 255 255 256 255 256 256 256 257 258 258 257 257 258 258 258 258 258 258 258
288 284 280 275 271 267 263 261 262 264 266 265 264 263 263 263 262 262 261 260 259 258 258 257 256 256 255 255 255 255 255 256 257 257 257 258 258 258 258 258 257 257 256
286 283 280 276 272 268 266 263 261 261 263 264 265 264 263 263 262 262 262 261 260 259 259 259 259 257 256 256 255 255 255 255 255 257 257 258 258 258 258 258 257 256 256
283 281 279 277 274 270 267 265 262 261 261 262 263 264 264 263 262 262 261 260 260 260 259 260 260 260 259 258 257 256 255 255 255 255 256 256 257 257 258 257 257 257 256
282 280 278 276 274 272 269 267 265 263 262 261 262 263 263 263 262 262 261 261 260 260 260 260 261 262 261 261 260 259 257 256 255 254 254 255 256 256 257 258 258 258 259
282 281 279 276 274 272 270 268 267 265 263 262 261 262 263 263 262 261 261 260 261 261 261 261 261 262 263 263 263 262 260 259 257 255 254 254 255 255 256 257 258 260 260
283 281 280 278 275 272 270 269 267 266 265 263 262 262 262 262 263 262 262 261 261 262 262 261 262 262 263 264 264 264 262 260 258 257 256 255 254 254 255 256 257 259 260
283 282 280 279 277 274 271 269 267 266 265 264 263 262 261 261 262 262 262 262 262 262 262 262 262 262 262 263 264 264 263 261 261 259 257 256 255 255 255 255 255 257 259
283 281 280 279 277 275 273 270 268 267 265 264 264 262 261 261 261 261 262 262 261 261 261 261 261 262 261 261 261 263 263 262 260 259 259 258 257 256 256 255 255 255 257
285 283 281 279 277 275 272 270 268 267 266 265 264 263 262 261 261 260 261 261 261 261 261 260 261 261 261 261 261 260 261 261 260 258 258 259 258 258 257 255 254 255 256
288 284 281 278 275 272 270 269 268 266 266 265 264 263 262 262 262 261 261 261 261 261 261 261 260 260 261 261 261 260 260 260 260 259 258 257 258 258 257 256 256 256 257
288 285 280 276 272 269 267 266 265 265 265 265 264 264 263 262 262 263 263 262 261 261 261 261 260 260 260 260 260 260 260 260 260 259 258 256 256 256 257 258 258 258 257
Height
5867 5866 5866 5865 5865 5864 5864 5864 5865 5866 5867 5868 5869 5870 5871 5872 5872 5873 5873 5874 5875 5875 5876 5877 5878 5879 5880 5880 5881 5882 5883 5883 5884 5884 5884 5885 5885 5885 5885 5885 5886 5886 5886
5867 5867 5866 5866 5865 5865 5865 5865 5865 5866 5866 5867 5868 5869 5870 5871 5871 5872 5872 5873 5873 5874 5875 5875 5876 5877 5878 5879 5879 5880 5881 5882 5882 5883 5883 5884 5884 5884 5884 5884 5885 5885 5885
5867 5867 5866 5866 5866 5866 5865 5865 5866 5866 5866 5867 5867 5868 5869 5869 5870 5871 5871 5872 5872 5873 5874 5874 5875 5876 5876 5877 5878 5879 5880 5880 5880 5881 5882 5882 5882 5883 5883 5883 5884 5884 5884
5868 5867 5866 5866 5866 5866 5866 5866 5866 5866 5867 5867 5867 5868 5868 5869 5869 5870 5870 5870 5871 5871 5872 5873 5873 5874 5875 5876 5876 5877 5878 5878 5878 5879 5880 5880 5881 5881 5882 5882 5882 5882 5882
5868 5867 5866 5866 5865 5865 5866 5866 5866 5866 5866 5867 5867 5867 5867 5868 5868 5869 5869 5869 5870 5870 5870 5871 5872 5872 5873 5873 5874 5875 5876 5876 5876 5876 5877 5878 5878 5879 5879 5880 5880 5880 5880
5868 5867 5866 5866 5865 5865 5865 5865 5865 5865 5865 5866 5866 5866 5867 5867 5867 5867 5868 5868 5868 5868 5869 5869 5869 5870 5870 5871 5872 5872 5873 5874 5874 5874 5874 5875 5875 5876 5877 5877 5877 5877 5878
5867 5866 5865 5865 5864 5864 5864 5863 5863 5864 5864 5864 5864 5865 5865 5865 5866 5866 5866 5866 5866 5866 5867 5867 5867 5867 5868 5868 5869 5870 5870 5871 5871 5871 5872 5872 5872 5873 5873 5874 5874 5874 5875
5865 5865 5864 5864 5863 5863 5863 5862 5862 5862 5862 5862 5862 5862 5863 5863 5863 5864 5864 5864 5864 5864 5864 5864 5865 5865 5865 5866 5866 5867 5867 5868 5868 5868 5869 5869 5869 5870 5870 5870 5871 5871 5872
5863 5862 5862 5862 5861 5861 5861 5861 5860 5860 5860 5860 5860 5859 5859 5860 5860 5861 5861 5861 5861 5862 5862 5862 5862 5862 5862 5863 5863 5863 5864 5865 5865 5865 5866 5866 5866 5867 5867 5867 5867 5868 5868
5861 5860 5860 5859 5859 5858 5858 5858 5858 5858 5858 5857 5857 5857 5856 5856 5857 5857 5857 5857 5857 5858 5858 5858 5858 5858 5859 5859 5860 5860 5860 5861 5861 5862 5862 5863 5863 5863 5864 5864 5864 5864 5865
5859 5858 5857 5856 5856 5855 5855 5855 5855 5854 5854 5854 5854 5854 5853 5853 5853 5853 5853 5853 5853 5853 5853 5853 5853 5854 5854 5855 5855 5856 5856 5857 5857 5858 5858 5858 5859 5859 5859 5860 5860 5861 5861
5856 5855 5854 5853 5852 5852 5851 5851 5850 5850 5850 5850 5850 5849 5849 5849 5849 5849 5848 5848 5848 5848 5848 5848 5848 5849 5849 5849 5850 5850 5851 5851 5852 5852 5853 5853 5854 5854 5855 5855 5856 5856 5857
5852 5851 5850 5849 5848 5847 5847 5846 5846 5845 5845 5845 5844 5844 5844 5844 5844 5844 5843 5843 5843 5843 5843 5843 5843 5843 5843 5844 5844 5844 5845 5845 5846 5847 5847 5848 5848 5849 5849 5850 5851 5852 5852
5847 5846 5845 5844 5844 5843 5842 5841 5841 5840 5840 5839 5839 5839 5838 5838 5838 5838 5837 5838 5838 5837 5837 5837 5837 5837 5837 5837 5838 5838 5838 5839 5839 5840 5841 5841 5842 5842 5843 5844 5845 5846 5847
5841 5840 5839 5838 5837 5837 5837 5836 5835 5834 5834 5833 5833 5833 5832 5832 5832 5831 5831 5831 5831 5831 5830 5830 5830 5831 5831 5831 5831 5831 5831 5832 5832 5833 5833 5834 5834 5835 5836 5836 5837 5839 5840
5834 5833 5832 5831 5831 5830 5830 5830 5829 5828 5827 5827 5827 5826 5826 5825 5825 5825 5824 5824 5823 5823 5823 5822 5823 5823 5823 5823 5824 5824 5824 5825 5825 5826 5826 5826 5827 5827 5828 5829 5830 5831 5832
5826 5825 5825 5824 5823 5823 5822 5822 5822 5821 5820 5820 5819 5818 5818 5818 5817 5817 5817 5816 5816 5815 5815 5814 5814 5815 5815 5815 5815 5816 5816 5817 5818 5818 5819 5819 5819 5820 5820 5821 5822 5822 5823
5819 5818 5817 5816 5815 5815 5814 5814 5813 5813 5813 5812 5811 5810 5810 5809 5809 5808 5808 5808 5807 5807 5806 5806 5805 5806 5806 5806 5806 5807 5808 5808 5809 5810 5810 5811 5811 5811 5812 5813 5813 5814 5815
5810 5809 5808 5808 5807 5806 5805 5805 5804 5804 5803 5803 5802 5801 5801 5800 5799 5799 5799 5798 5798 5797 5797 5797 5796 5796 5796 5796 5797 5797 5798 5799 5800 5801 5801 5801 5802 5802 5803 5804 5805 5805 5806
5801 5800 5799 5799 5798 5797 5796 5795 5794 5794 5793 5793 5792 5791 5791 5790 5789 5789 5788 5788 5787 5787 5787 5787 5786 5786 5786 5786 5787 5788 5789 5789 5790 5790 5791 5792 5792 5792 5793 5794 5795 5796 5797
5793 5791 5790 5789 5788 5787 5786 5785 5784 5783 5783 5782 5781 5780 5780 5779 5778 5778 5778 5777 5777 5776 5776 5776 5775 5775 5775 5775 5775 5777 5778 5778 5779 5780 5781 5782 5781 5782 5783 5784 5785 5786 5786
5784 5782 5781 5779 5778 5776 5775 5774 5773 5772 5771 5771 5770 5769 5768 5767 5767 5766 5766 5765 5765 5765 5765 5764 5763 5763 5763 5763 5763 5764 5765 5768 5769 5769 5769 5770 5771 5771 5772 5773 5774 5775 5775
5773 5772 5770 5769 5767 5765 5764 5763 5762 5761 5759 5759 5757 5756 5756 5755 5754 5754 5753 5753 5752 5752 5751 5751 5751 5750 5750 5751 5751 5751 5752 5755 5757 5757 5758 5758 5759 5759 5760 5761 5762 5762 5763
5761 5760 5759 5757 5755 5753 5751 5750 5749 5747 5746 5745 5743 5742 5741 5741 5740 5740 5739 5739 5738 5738 5737 5737 5737 5736 5736 5737 5737 5737 5738 5739 5741 5744 5745 5746 5746 5747 5747 5748 5748 5749 5751
5746 5746 5745 5743 5742 5740 5738 5736 5734 5733 5731 5730 5728 5727 5726 5725 5724 5723 5723 5723 5723 5722 5722 5722 5722 5721 5721 5722 5722 5723 5723 5723 5725 5728 5731 5733 5732 5733 5732 5733 5734 5736 5738
5731 5730 5729 5728 5726 5725 5723 5721 5719 5717 5715 5713 5712 5710 5709 5708 5707 5706 5705 5705 5705 5705 5705 5705 5705 5705 5705 5705 5705 5706 5707 5707 5708 5710 5713 5716 5717 5719 5718 5719 5721 5723 5725